Index of /20260426/WXO-DD/model_rdps/10km/18/015
Name Last modified Size Description
Parent Directory -
20260426T18Z_MSC_RDPS_AbsoluteVorticity_IsbL-0250_RLatLon0.09_PT015H.grib2 2026-04-26 21:24 605K
20260426T18Z_MSC_RDPS_AbsoluteVorticity_IsbL-0500_RLatLon0.09_PT015H.grib2 2026-04-26 21:24 537K
20260426T18Z_MSC_RDPS_AbsoluteVorticity_IsbL-0700_RLatLon0.09_PT015H.grib2 2026-04-26 21:24 616K
20260426T18Z_MSC_RDPS_AbsoluteVorticity_IsbL-0850_RLatLon0.09_PT015H.grib2 2026-04-26 21:24 781K
20260426T18Z_MSC_RDPS_AirTemp_AGL-120m_RLatLon0.09_PT015H.grib2 2026-04-26 21:24 396K
20260426T18Z_MSC_RDPS_AirTemp_AGL-2m_RLatLon0.09_PT015H.grib2 2026-04-26 21:24 641K
20260426T18Z_MSC_RDPS_AirTemp_AGL-40m_RLatLon0.09_PT015H.grib2 2026-04-26 21:24 411K
20260426T18Z_MSC_RDPS_AirTemp_AGL-80m_RLatLon0.09_PT015H.grib2 2026-04-26 21:24 404K
20260426T18Z_MSC_RDPS_AirTemp_IsbL-0001_RLatLon0.09_PT015H.grib2 2026-04-26 21:24 249K
20260426T18Z_MSC_RDPS_AirTemp_IsbL-0005_RLatLon0.09_PT015H.grib2 2026-04-26 21:24 287K
20260426T18Z_MSC_RDPS_AirTemp_IsbL-0010_RLatLon0.09_PT015H.grib2 2026-04-26 21:24 300K
20260426T18Z_MSC_RDPS_AirTemp_IsbL-0020_RLatLon0.09_PT015H.grib2 2026-04-26 21:24 318K
20260426T18Z_MSC_RDPS_AirTemp_IsbL-0030_RLatLon0.09_PT015H.grib2 2026-04-26 21:24 336K
20260426T18Z_MSC_RDPS_AirTemp_IsbL-0050_RLatLon0.09_PT015H.grib2 2026-04-26 21:24 314K
20260426T18Z_MSC_RDPS_AirTemp_IsbL-0100_RLatLon0.09_PT015H.grib2 2026-04-26 21:24 418K
20260426T18Z_MSC_RDPS_AirTemp_IsbL-0150_RLatLon0.09_PT015H.grib2 2026-04-26 21:24 416K
20260426T18Z_MSC_RDPS_AirTemp_IsbL-0175_RLatLon0.09_PT015H.grib2 2026-04-26 21:24 408K
20260426T18Z_MSC_RDPS_AirTemp_IsbL-0200_RLatLon0.09_PT015H.grib2 2026-04-26 21:24 416K
20260426T18Z_MSC_RDPS_AirTemp_IsbL-0225_RLatLon0.09_PT015H.grib2 2026-04-26 21:24 419K
20260426T18Z_MSC_RDPS_AirTemp_IsbL-0250_RLatLon0.09_PT015H.grib2 2026-04-26 21:24 424K
20260426T18Z_MSC_RDPS_AirTemp_IsbL-0275_RLatLon0.09_PT015H.grib2 2026-04-26 21:24 405K
20260426T18Z_MSC_RDPS_AirTemp_IsbL-0300_RLatLon0.09_PT015H.grib2 2026-04-26 21:24 413K
20260426T18Z_MSC_RDPS_AirTemp_IsbL-0350_RLatLon0.09_PT015H.grib2 2026-04-26 21:24 423K
20260426T18Z_MSC_RDPS_AirTemp_IsbL-0400_RLatLon0.09_PT015H.grib2 2026-04-26 21:24 422K
20260426T18Z_MSC_RDPS_AirTemp_IsbL-0450_RLatLon0.09_PT015H.grib2 2026-04-26 21:24 430K
20260426T18Z_MSC_RDPS_AirTemp_IsbL-0500_RLatLon0.09_PT015H.grib2 2026-04-26 21:24 407K
20260426T18Z_MSC_RDPS_AirTemp_IsbL-0550_RLatLon0.09_PT015H.grib2 2026-04-26 21:24 425K
20260426T18Z_MSC_RDPS_AirTemp_IsbL-0600_RLatLon0.09_PT015H.grib2 2026-04-26 21:24 441K
20260426T18Z_MSC_RDPS_AirTemp_IsbL-0650_RLatLon0.09_PT015H.grib2 2026-04-26 21:24 455K
20260426T18Z_MSC_RDPS_AirTemp_IsbL-0700_RLatLon0.09_PT015H.grib2 2026-04-26 21:24 479K
20260426T18Z_MSC_RDPS_AirTemp_IsbL-0750_RLatLon0.09_PT015H.grib2 2026-04-26 21:24 408K
20260426T18Z_MSC_RDPS_AirTemp_IsbL-0800_RLatLon0.09_PT015H.grib2 2026-04-26 21:24 459K
20260426T18Z_MSC_RDPS_AirTemp_IsbL-0850_RLatLon0.09_PT015H.grib2 2026-04-26 21:24 505K
20260426T18Z_MSC_RDPS_AirTemp_IsbL-0875_RLatLon0.09_PT015H.grib2 2026-04-26 21:24 517K
20260426T18Z_MSC_RDPS_AirTemp_IsbL-0900_RLatLon0.09_PT015H.grib2 2026-04-26 21:24 521K
20260426T18Z_MSC_RDPS_AirTemp_IsbL-0925_RLatLon0.09_PT015H.grib2 2026-04-26 21:24 530K
20260426T18Z_MSC_RDPS_AirTemp_IsbL-0950_RLatLon0.09_PT015H.grib2 2026-04-26 21:24 523K
20260426T18Z_MSC_RDPS_AirTemp_IsbL-0970_RLatLon0.09_PT015H.grib2 2026-04-26 21:24 522K
20260426T18Z_MSC_RDPS_AirTemp_IsbL-0985_RLatLon0.09_PT015H.grib2 2026-04-26 21:24 516K
20260426T18Z_MSC_RDPS_AirTemp_IsbL-1000_RLatLon0.09_PT015H.grib2 2026-04-26 21:24 498K
20260426T18Z_MSC_RDPS_AirTemp_IsbL-1015_RLatLon0.09_PT015H.grib2 2026-04-26 21:24 492K
20260426T18Z_MSC_RDPS_Albedo_Sfc_RLatLon0.09_PT015H.grib2 2026-04-26 21:24 166K
20260426T18Z_MSC_RDPS_CAPE_Sfc_RLatLon0.09_PT015H.grib2 2026-04-26 21:24 1.7M
20260426T18Z_MSC_RDPS_CIN_Sfc_RLatLon0.09_PT015H.grib2 2026-04-26 21:24 1.1M
20260426T18Z_MSC_RDPS_CloudWater_EAtm_RLatLon0.09_PT015H.grib2 2026-04-26 21:24 216K
20260426T18Z_MSC_RDPS_ConvectivePrecip-Accum_Sfc_RLatLon0.09_PT015H.grib2 2026-04-26 21:24 746K
20260426T18Z_MSC_RDPS_DewPointDepression_AGL-2m_RLatLon0.09_PT015H.grib2 2026-04-26 21:24 390K
20260426T18Z_MSC_RDPS_DewPointDepression_IsbL-0001_RLatLon0.09_PT015H.grib2 2026-04-26 21:24 193
20260426T18Z_MSC_RDPS_DewPointDepression_IsbL-0005_RLatLon0.09_PT015H.grib2 2026-04-26 21:24 193
20260426T18Z_MSC_RDPS_DewPointDepression_IsbL-0010_RLatLon0.09_PT015H.grib2 2026-04-26 21:24 193
20260426T18Z_MSC_RDPS_DewPointDepression_IsbL-0020_RLatLon0.09_PT015H.grib2 2026-04-26 21:24 193
20260426T18Z_MSC_RDPS_DewPointDepression_IsbL-0030_RLatLon0.09_PT015H.grib2 2026-04-26 21:24 193
20260426T18Z_MSC_RDPS_DewPointDepression_IsbL-0050_RLatLon0.09_PT015H.grib2 2026-04-26 21:24 90K
20260426T18Z_MSC_RDPS_DewPointDepression_IsbL-0100_RLatLon0.09_PT015H.grib2 2026-04-26 21:24 124K
20260426T18Z_MSC_RDPS_DewPointDepression_IsbL-0150_RLatLon0.09_PT015H.grib2 2026-04-26 21:24 153K
20260426T18Z_MSC_RDPS_DewPointDepression_IsbL-0175_RLatLon0.09_PT015H.grib2 2026-04-26 21:24 183K
20260426T18Z_MSC_RDPS_DewPointDepression_IsbL-0200_RLatLon0.09_PT015H.grib2 2026-04-26 21:24 224K
20260426T18Z_MSC_RDPS_DewPointDepression_IsbL-0225_RLatLon0.09_PT015H.grib2 2026-04-26 21:24 263K
20260426T18Z_MSC_RDPS_DewPointDepression_IsbL-0250_RLatLon0.09_PT015H.grib2 2026-04-26 21:24 302K
20260426T18Z_MSC_RDPS_DewPointDepression_IsbL-0275_RLatLon0.09_PT015H.grib2 2026-04-26 21:24 312K
20260426T18Z_MSC_RDPS_DewPointDepression_IsbL-0300_RLatLon0.09_PT015H.grib2 2026-04-26 21:24 331K
20260426T18Z_MSC_RDPS_DewPointDepression_IsbL-0350_RLatLon0.09_PT015H.grib2 2026-04-26 21:24 335K
20260426T18Z_MSC_RDPS_DewPointDepression_IsbL-0400_RLatLon0.09_PT015H.grib2 2026-04-26 21:24 347K
20260426T18Z_MSC_RDPS_DewPointDepression_IsbL-0450_RLatLon0.09_PT015H.grib2 2026-04-26 21:24 354K
20260426T18Z_MSC_RDPS_DewPointDepression_IsbL-0500_RLatLon0.09_PT015H.grib2 2026-04-26 21:24 358K
20260426T18Z_MSC_RDPS_DewPointDepression_IsbL-0550_RLatLon0.09_PT015H.grib2 2026-04-26 21:24 367K
20260426T18Z_MSC_RDPS_DewPointDepression_IsbL-0600_RLatLon0.09_PT015H.grib2 2026-04-26 21:24 379K
20260426T18Z_MSC_RDPS_DewPointDepression_IsbL-0650_RLatLon0.09_PT015H.grib2 2026-04-26 21:24 382K
20260426T18Z_MSC_RDPS_DewPointDepression_IsbL-0700_RLatLon0.09_PT015H.grib2 2026-04-26 21:24 391K
20260426T18Z_MSC_RDPS_DewPointDepression_IsbL-0750_RLatLon0.09_PT015H.grib2 2026-04-26 21:24 418K
20260426T18Z_MSC_RDPS_DewPointDepression_IsbL-0800_RLatLon0.09_PT015H.grib2 2026-04-26 21:24 454K
20260426T18Z_MSC_RDPS_DewPointDepression_IsbL-0850_RLatLon0.09_PT015H.grib2 2026-04-26 21:24 474K
20260426T18Z_MSC_RDPS_DewPointDepression_IsbL-0875_RLatLon0.09_PT015H.grib2 2026-04-26 21:24 473K
20260426T18Z_MSC_RDPS_DewPointDepression_IsbL-0900_RLatLon0.09_PT015H.grib2 2026-04-26 21:24 462K
20260426T18Z_MSC_RDPS_DewPointDepression_IsbL-0925_RLatLon0.09_PT015H.grib2 2026-04-26 21:24 452K
20260426T18Z_MSC_RDPS_DewPointDepression_IsbL-0950_RLatLon0.09_PT015H.grib2 2026-04-26 21:24 441K
20260426T18Z_MSC_RDPS_DewPointDepression_IsbL-0970_RLatLon0.09_PT015H.grib2 2026-04-26 21:24 433K
20260426T18Z_MSC_RDPS_DewPointDepression_IsbL-0985_RLatLon0.09_PT015H.grib2 2026-04-26 21:24 430K
20260426T18Z_MSC_RDPS_DewPointDepression_IsbL-1000_RLatLon0.09_PT015H.grib2 2026-04-26 21:24 426K
20260426T18Z_MSC_RDPS_DewPointDepression_IsbL-1015_RLatLon0.09_PT015H.grib2 2026-04-26 21:24 419K
20260426T18Z_MSC_RDPS_DewPoint_AGL-2m_RLatLon0.09_PT015H.grib2 2026-04-26 21:24 310K
20260426T18Z_MSC_RDPS_DownwardLongwaveRadiationFlux-Accum_Sfc_RLatLon0.09_PT015H.grib2 2026-04-26 21:24 512K
20260426T18Z_MSC_RDPS_DownwardShortwaveRadiationFlux-Accum_NTAtm_RLatLon0.09_PT015H.grib2 2026-04-26 21:24 103K
20260426T18Z_MSC_RDPS_DownwardShortwaveRadiationFlux-Accum_Sfc_RLatLon0.09_PT015H.grib2 2026-04-26 21:24 539K
20260426T18Z_MSC_RDPS_FreezingRain-Accum1h_Sfc_RLatLon0.09_PT015H.grib2 2026-04-26 21:24 53K
20260426T18Z_MSC_RDPS_FreezingRain-Accum3h_Sfc_RLatLon0.09_PT015H.grib2 2026-04-26 21:24 52K
20260426T18Z_MSC_RDPS_FreezingRain-Accum_Sfc_RLatLon0.09_PT015H.grib2 2026-04-26 21:24 81K
20260426T18Z_MSC_RDPS_GeopotentialHeight_IsbL-0001_RLatLon0.09_PT015H.grib2 2026-04-26 21:24 268K
20260426T18Z_MSC_RDPS_GeopotentialHeight_IsbL-0005_RLatLon0.09_PT015H.grib2 2026-04-26 21:24 338K
20260426T18Z_MSC_RDPS_GeopotentialHeight_IsbL-0010_RLatLon0.09_PT015H.grib2 2026-04-26 21:24 306K
20260426T18Z_MSC_RDPS_GeopotentialHeight_IsbL-0020_RLatLon0.09_PT015H.grib2 2026-04-26 21:24 305K
20260426T18Z_MSC_RDPS_GeopotentialHeight_IsbL-0030_RLatLon0.09_PT015H.grib2 2026-04-26 21:24 404K
20260426T18Z_MSC_RDPS_GeopotentialHeight_IsbL-0050_RLatLon0.09_PT015H.grib2 2026-04-26 21:24 308K
20260426T18Z_MSC_RDPS_GeopotentialHeight_IsbL-0100_RLatLon0.09_PT015H.grib2 2026-04-26 21:24 288K
20260426T18Z_MSC_RDPS_GeopotentialHeight_IsbL-0150_RLatLon0.09_PT015H.grib2 2026-04-26 21:24 228K
20260426T18Z_MSC_RDPS_GeopotentialHeight_IsbL-0175_RLatLon0.09_PT015H.grib2 2026-04-26 21:24 230K
20260426T18Z_MSC_RDPS_GeopotentialHeight_IsbL-0200_RLatLon0.09_PT015H.grib2 2026-04-26 21:24 233K
20260426T18Z_MSC_RDPS_GeopotentialHeight_IsbL-0225_RLatLon0.09_PT015H.grib2 2026-04-26 21:24 235K
20260426T18Z_MSC_RDPS_GeopotentialHeight_IsbL-0250_RLatLon0.09_PT015H.grib2 2026-04-26 21:24 237K
20260426T18Z_MSC_RDPS_GeopotentialHeight_IsbL-0275_RLatLon0.09_PT015H.grib2 2026-04-26 21:24 236K
20260426T18Z_MSC_RDPS_GeopotentialHeight_IsbL-0300_RLatLon0.09_PT015H.grib2 2026-04-26 21:24 235K
20260426T18Z_MSC_RDPS_GeopotentialHeight_IsbL-0350_RLatLon0.09_PT015H.grib2 2026-04-26 21:24 232K
20260426T18Z_MSC_RDPS_GeopotentialHeight_IsbL-0400_RLatLon0.09_PT015H.grib2 2026-04-26 21:24 227K
20260426T18Z_MSC_RDPS_GeopotentialHeight_IsbL-0450_RLatLon0.09_PT015H.grib2 2026-04-26 21:24 296K
20260426T18Z_MSC_RDPS_GeopotentialHeight_IsbL-0500_RLatLon0.09_PT015H.grib2 2026-04-26 21:24 291K
20260426T18Z_MSC_RDPS_GeopotentialHeight_IsbL-0550_RLatLon0.09_PT015H.grib2 2026-04-26 21:24 287K
20260426T18Z_MSC_RDPS_GeopotentialHeight_IsbL-0600_RLatLon0.09_PT015H.grib2 2026-04-26 21:24 284K
20260426T18Z_MSC_RDPS_GeopotentialHeight_IsbL-0650_RLatLon0.09_PT015H.grib2 2026-04-26 21:24 281K
20260426T18Z_MSC_RDPS_GeopotentialHeight_IsbL-0700_RLatLon0.09_PT015H.grib2 2026-04-26 21:24 279K
20260426T18Z_MSC_RDPS_GeopotentialHeight_IsbL-0750_RLatLon0.09_PT015H.grib2 2026-04-26 21:24 254K
20260426T18Z_MSC_RDPS_GeopotentialHeight_IsbL-0800_RLatLon0.09_PT015H.grib2 2026-04-26 21:24 260K
20260426T18Z_MSC_RDPS_GeopotentialHeight_IsbL-0850_RLatLon0.09_PT015H.grib2 2026-04-26 21:24 267K
20260426T18Z_MSC_RDPS_GeopotentialHeight_IsbL-0875_RLatLon0.09_PT015H.grib2 2026-04-26 21:24 269K
20260426T18Z_MSC_RDPS_GeopotentialHeight_IsbL-0900_RLatLon0.09_PT015H.grib2 2026-04-26 21:24 273K
20260426T18Z_MSC_RDPS_GeopotentialHeight_IsbL-0925_RLatLon0.09_PT015H.grib2 2026-04-26 21:24 275K
20260426T18Z_MSC_RDPS_GeopotentialHeight_IsbL-0950_RLatLon0.09_PT015H.grib2 2026-04-26 21:24 278K
20260426T18Z_MSC_RDPS_GeopotentialHeight_IsbL-0970_RLatLon0.09_PT015H.grib2 2026-04-26 21:24 283K
20260426T18Z_MSC_RDPS_GeopotentialHeight_IsbL-0985_RLatLon0.09_PT015H.grib2 2026-04-26 21:24 290K
20260426T18Z_MSC_RDPS_GeopotentialHeight_IsbL-1000_RLatLon0.09_PT015H.grib2 2026-04-26 21:24 300K
20260426T18Z_MSC_RDPS_GeopotentialHeight_IsbL-1015_RLatLon0.09_PT015H.grib2 2026-04-26 21:24 312K
20260426T18Z_MSC_RDPS_Humidex_Sfc_RLatLon0.09_PT015H.grib2 2026-04-26 21:24 2.4M
20260426T18Z_MSC_RDPS_IcePellets-Accum1h_Sfc_RLatLon0.09_PT015H.grib2 2026-04-26 21:24 6.7K
20260426T18Z_MSC_RDPS_IcePellets-Accum3h_Sfc_RLatLon0.09_PT015H.grib2 2026-04-26 21:24 8.4K
20260426T18Z_MSC_RDPS_IcePellets-Accum_Sfc_RLatLon0.09_PT015H.grib2 2026-04-26 21:24 11K
20260426T18Z_MSC_RDPS_KIndex_Sfc_RLatLon0.09_PT015H.grib2 2026-04-26 21:24 2.4M
20260426T18Z_MSC_RDPS_LatentHeatNetFlux_Sfc_RLatLon0.09_PT015H.grib2 2026-04-26 21:24 314K
20260426T18Z_MSC_RDPS_LiftedIndex-MU-VT_IsbL-0500_RLatLon0.09_PT015H.grib2 2026-04-26 21:24 2.4M
20260426T18Z_MSC_RDPS_NetLongwaveRadiationFlux-Accum_Sfc_RLatLon0.09_PT015H.grib2 2026-04-26 21:24 516K
20260426T18Z_MSC_RDPS_NetShortwaveRadiationFlux-Accum_Sfc_RLatLon0.09_PT015H.grib2 2026-04-26 21:24 535K
20260426T18Z_MSC_RDPS_PlanetaryBoundaryLayerHeight_Sfc_RLatLon0.09_PT015H.grib2 2026-04-26 21:24 1.1M
20260426T18Z_MSC_RDPS_Precip-Accum1h_Sfc_RLatLon0.09_PT015H.grib2 2026-04-26 21:24 1.3M
20260426T18Z_MSC_RDPS_Precip-Accum3h_Sfc_RLatLon0.09_PT015H.grib2 2026-04-26 21:24 1.4M
20260426T18Z_MSC_RDPS_Precip-Accum_Sfc_RLatLon0.09_PT015H.grib2 2026-04-26 21:24 1.7M
20260426T18Z_MSC_RDPS_PrecipRate_Sfc_RLatLon0.09_PT015H.grib2 2026-04-26 21:24 183K
20260426T18Z_MSC_RDPS_PrecipType-Instant_Sfc_RLatLon0.09_PT015H.grib2 2026-04-26 21:24 601K
20260426T18Z_MSC_RDPS_Pressure-Trend3h_Sfc_RLatLon0.09_PT015H.grib2 2026-04-26 21:24 1.2M
20260426T18Z_MSC_RDPS_Pressure_MSL_RLatLon0.09_PT015H.grib2 2026-04-26 21:24 325K
20260426T18Z_MSC_RDPS_Pressure_PVU-1.5_RLatLon0.09_PT015H.grib2 2026-04-26 21:24 2.3M
20260426T18Z_MSC_RDPS_Pressure_PVU-1_RLatLon0.09_PT015H.grib2 2026-04-26 21:24 2.4M
20260426T18Z_MSC_RDPS_Pressure_PVU-2_RLatLon0.09_PT015H.grib2 2026-04-26 21:24 2.4M
20260426T18Z_MSC_RDPS_Pressure_Sfc_RLatLon0.09_PT015H.grib2 2026-04-26 21:24 500K
20260426T18Z_MSC_RDPS_RadiativeTemp_Sfc_RLatLon0.09_PT015H.grib2 2026-04-26 21:24 305K
20260426T18Z_MSC_RDPS_Rain-Accum1h_Sfc_RLatLon0.09_PT015H.grib2 2026-04-26 21:24 614K
20260426T18Z_MSC_RDPS_Rain-Accum3h_Sfc_RLatLon0.09_PT015H.grib2 2026-04-26 21:24 680K
20260426T18Z_MSC_RDPS_Rain-Accum_Sfc_RLatLon0.09_PT015H.grib2 2026-04-26 21:24 1.2M
20260426T18Z_MSC_RDPS_RelativeHumidity_AGL-2m_RLatLon0.09_PT015H.grib2 2026-04-26 21:24 1.0M
20260426T18Z_MSC_RDPS_RelativeHumidity_IsbL-0010_RLatLon0.09_PT015H.grib2 2026-04-26 21:24 635K
20260426T18Z_MSC_RDPS_RelativeHumidity_IsbL-0020_RLatLon0.09_PT015H.grib2 2026-04-26 21:24 656K
20260426T18Z_MSC_RDPS_RelativeHumidity_IsbL-0030_RLatLon0.09_PT015H.grib2 2026-04-26 21:24 542K
20260426T18Z_MSC_RDPS_RelativeHumidity_IsbL-0050_RLatLon0.09_PT015H.grib2 2026-04-26 21:24 325K
20260426T18Z_MSC_RDPS_RelativeHumidity_IsbL-0100_RLatLon0.09_PT015H.grib2 2026-04-26 21:24 269K
20260426T18Z_MSC_RDPS_RelativeHumidity_IsbL-0150_RLatLon0.09_PT015H.grib2 2026-04-26 21:24 408K
20260426T18Z_MSC_RDPS_RelativeHumidity_IsbL-0175_RLatLon0.09_PT015H.grib2 2026-04-26 21:24 476K
20260426T18Z_MSC_RDPS_RelativeHumidity_IsbL-0200_RLatLon0.09_PT015H.grib2 2026-04-26 21:24 555K
20260426T18Z_MSC_RDPS_RelativeHumidity_IsbL-0225_RLatLon0.09_PT015H.grib2 2026-04-26 21:24 621K
20260426T18Z_MSC_RDPS_RelativeHumidity_IsbL-0250_RLatLon0.09_PT015H.grib2 2026-04-26 21:24 691K
20260426T18Z_MSC_RDPS_RelativeHumidity_IsbL-0275_RLatLon0.09_PT015H.grib2 2026-04-26 21:24 720K
20260426T18Z_MSC_RDPS_RelativeHumidity_IsbL-0300_RLatLon0.09_PT015H.grib2 2026-04-26 21:24 767K
20260426T18Z_MSC_RDPS_RelativeHumidity_IsbL-0350_RLatLon0.09_PT015H.grib2 2026-04-26 21:24 786K
20260426T18Z_MSC_RDPS_RelativeHumidity_IsbL-0400_RLatLon0.09_PT015H.grib2 2026-04-26 21:24 799K
20260426T18Z_MSC_RDPS_RelativeHumidity_IsbL-0450_RLatLon0.09_PT015H.grib2 2026-04-26 21:24 807K
20260426T18Z_MSC_RDPS_RelativeHumidity_IsbL-0500_RLatLon0.09_PT015H.grib2 2026-04-26 21:24 813K
20260426T18Z_MSC_RDPS_RelativeHumidity_IsbL-0550_RLatLon0.09_PT015H.grib2 2026-04-26 21:24 829K
20260426T18Z_MSC_RDPS_RelativeHumidity_IsbL-0600_RLatLon0.09_PT015H.grib2 2026-04-26 21:24 857K
20260426T18Z_MSC_RDPS_RelativeHumidity_IsbL-0650_RLatLon0.09_PT015H.grib2 2026-04-26 21:24 861K
20260426T18Z_MSC_RDPS_RelativeHumidity_IsbL-0700_RLatLon0.09_PT015H.grib2 2026-04-26 21:24 895K
20260426T18Z_MSC_RDPS_RelativeHumidity_IsbL-0750_RLatLon0.09_PT015H.grib2 2026-04-26 21:24 942K
20260426T18Z_MSC_RDPS_RelativeHumidity_IsbL-0800_RLatLon0.09_PT015H.grib2 2026-04-26 21:24 1.0M
20260426T18Z_MSC_RDPS_RelativeHumidity_IsbL-0850_RLatLon0.09_PT015H.grib2 2026-04-26 21:24 1.0M
20260426T18Z_MSC_RDPS_RelativeHumidity_IsbL-0875_RLatLon0.09_PT015H.grib2 2026-04-26 21:24 1.1M
20260426T18Z_MSC_RDPS_RelativeHumidity_IsbL-0900_RLatLon0.09_PT015H.grib2 2026-04-26 21:24 1.1M
20260426T18Z_MSC_RDPS_RelativeHumidity_IsbL-0925_RLatLon0.09_PT015H.grib2 2026-04-26 21:24 1.1M
20260426T18Z_MSC_RDPS_RelativeHumidity_IsbL-0950_RLatLon0.09_PT015H.grib2 2026-04-26 21:24 1.1M
20260426T18Z_MSC_RDPS_RelativeHumidity_IsbL-0970_RLatLon0.09_PT015H.grib2 2026-04-26 21:24 1.1M
20260426T18Z_MSC_RDPS_RelativeHumidity_IsbL-0985_RLatLon0.09_PT015H.grib2 2026-04-26 21:24 1.0M
20260426T18Z_MSC_RDPS_RelativeHumidity_IsbL-1000_RLatLon0.09_PT015H.grib2 2026-04-26 21:24 1.0M
20260426T18Z_MSC_RDPS_RelativeHumidity_IsbL-1015_RLatLon0.09_PT015H.grib2 2026-04-26 21:24 1.0M
20260426T18Z_MSC_RDPS_Runoff-Accum_Sfc_RLatLon0.09_PT015H.grib2 2026-04-26 21:24 54K
20260426T18Z_MSC_RDPS_SWEATIndex_Sfc_RLatLon0.09_PT015H.grib2 2026-04-26 21:24 2.4M
20260426T18Z_MSC_RDPS_SeeingIndex_EAtm_RLatLon0.09_PT015H.grib2 2026-04-26 21:24 1.0M
20260426T18Z_MSC_RDPS_SensibleHeatNetFlux_Sfc_RLatLon0.09_PT015H.grib2 2026-04-26 21:24 219K
20260426T18Z_MSC_RDPS_ShowalterIndex_IsbL-0500_RLatLon0.09_PT015H.grib2 2026-04-26 21:24 2.6M
20260426T18Z_MSC_RDPS_SkyTransparencyIndex_EAtm_RLatLon0.09_PT015H.grib2 2026-04-26 21:24 709K
20260426T18Z_MSC_RDPS_Snow-Accum1h_Sfc_RLatLon0.09_PT015H.grib2 2026-04-26 21:24 495K
20260426T18Z_MSC_RDPS_Snow-Accum3h_Sfc_RLatLon0.09_PT015H.grib2 2026-04-26 21:24 446K
20260426T18Z_MSC_RDPS_Snow-Accum_Sfc_RLatLon0.09_PT015H.grib2 2026-04-26 21:24 720K
20260426T18Z_MSC_RDPS_SnowDensity_Sfc_RLatLon0.09_PT015H.grib2 2026-04-26 21:24 181K
20260426T18Z_MSC_RDPS_SnowDepth_Sfc_RLatLon0.09_PT015H.grib2 2026-04-26 21:24 722K
20260426T18Z_MSC_RDPS_SoilTemp_DBS-0to10cm_RLatLon0.09_PT015H.grib2 2026-04-26 21:24 212K
20260426T18Z_MSC_RDPS_SoilTemp_Sfc_RLatLon0.09_PT015H.grib2 2026-04-26 21:24 281K
20260426T18Z_MSC_RDPS_SoilVolumetricIceContent_Sfc_RLatLon0.09_PT015H.grib2 2026-04-26 21:24 168K
20260426T18Z_MSC_RDPS_SoilVolumetricWaterContent_DBS-0to10cm_RLatLon0.09_PT015H.grib2 2026-04-26 21:24 259K
20260426T18Z_MSC_RDPS_SoilVolumetricWaterContent_DBS-0to1cm_RLatLon0.09_PT015H.grib2 2026-04-26 21:24 338K
20260426T18Z_MSC_RDPS_SpecificHumidity_AGL-120m_RLatLon0.09_PT015H.grib2 2026-04-26 21:24 483K
20260426T18Z_MSC_RDPS_SpecificHumidity_AGL-2m_RLatLon0.09_PT015H.grib2 2026-04-26 21:24 649K
20260426T18Z_MSC_RDPS_SpecificHumidity_AGL-40m_RLatLon0.09_PT015H.grib2 2026-04-26 21:24 488K
20260426T18Z_MSC_RDPS_SpecificHumidity_AGL-80m_RLatLon0.09_PT015H.grib2 2026-04-26 21:24 484K
20260426T18Z_MSC_RDPS_SpecificHumidity_IsbL-0001_RLatLon0.09_PT015H.grib2 2026-04-26 21:24 332K
20260426T18Z_MSC_RDPS_SpecificHumidity_IsbL-0005_RLatLon0.09_PT015H.grib2 2026-04-26 21:24 358K
20260426T18Z_MSC_RDPS_SpecificHumidity_IsbL-0010_RLatLon0.09_PT015H.grib2 2026-04-26 21:24 399K
20260426T18Z_MSC_RDPS_SpecificHumidity_IsbL-0020_RLatLon0.09_PT015H.grib2 2026-04-26 21:24 390K
20260426T18Z_MSC_RDPS_SpecificHumidity_IsbL-0030_RLatLon0.09_PT015H.grib2 2026-04-26 21:24 480K
20260426T18Z_MSC_RDPS_SpecificHumidity_IsbL-0050_RLatLon0.09_PT015H.grib2 2026-04-26 21:24 501K
20260426T18Z_MSC_RDPS_SpecificHumidity_IsbL-0100_RLatLon0.09_PT015H.grib2 2026-04-26 21:24 420K
20260426T18Z_MSC_RDPS_SpecificHumidity_IsbL-0150_RLatLon0.09_PT015H.grib2 2026-04-26 21:24 358K
20260426T18Z_MSC_RDPS_SpecificHumidity_IsbL-0175_RLatLon0.09_PT015H.grib2 2026-04-26 21:24 547K
20260426T18Z_MSC_RDPS_SpecificHumidity_IsbL-0200_RLatLon0.09_PT015H.grib2 2026-04-26 21:24 564K
20260426T18Z_MSC_RDPS_SpecificHumidity_IsbL-0225_RLatLon0.09_PT015H.grib2 2026-04-26 21:24 562K
20260426T18Z_MSC_RDPS_SpecificHumidity_IsbL-0250_RLatLon0.09_PT015H.grib2 2026-04-26 21:24 559K
20260426T18Z_MSC_RDPS_SpecificHumidity_IsbL-0275_RLatLon0.09_PT015H.grib2 2026-04-26 21:24 476K
20260426T18Z_MSC_RDPS_SpecificHumidity_IsbL-0300_RLatLon0.09_PT015H.grib2 2026-04-26 21:24 547K
20260426T18Z_MSC_RDPS_SpecificHumidity_IsbL-0350_RLatLon0.09_PT015H.grib2 2026-04-26 21:24 536K
20260426T18Z_MSC_RDPS_SpecificHumidity_IsbL-0400_RLatLon0.09_PT015H.grib2 2026-04-26 21:24 517K
20260426T18Z_MSC_RDPS_SpecificHumidity_IsbL-0450_RLatLon0.09_PT015H.grib2 2026-04-26 21:24 571K
20260426T18Z_MSC_RDPS_SpecificHumidity_IsbL-0500_RLatLon0.09_PT015H.grib2 2026-04-26 21:24 507K
20260426T18Z_MSC_RDPS_SpecificHumidity_IsbL-0550_RLatLon0.09_PT015H.grib2 2026-04-26 21:24 560K
20260426T18Z_MSC_RDPS_SpecificHumidity_IsbL-0600_RLatLon0.09_PT015H.grib2 2026-04-26 21:24 626K
20260426T18Z_MSC_RDPS_SpecificHumidity_IsbL-0650_RLatLon0.09_PT015H.grib2 2026-04-26 21:24 668K
20260426T18Z_MSC_RDPS_SpecificHumidity_IsbL-0700_RLatLon0.09_PT015H.grib2 2026-04-26 21:24 589K
20260426T18Z_MSC_RDPS_SpecificHumidity_IsbL-0750_RLatLon0.09_PT015H.grib2 2026-04-26 21:24 648K
20260426T18Z_MSC_RDPS_SpecificHumidity_IsbL-0800_RLatLon0.09_PT015H.grib2 2026-04-26 21:24 732K
20260426T18Z_MSC_RDPS_SpecificHumidity_IsbL-0850_RLatLon0.09_PT015H.grib2 2026-04-26 21:24 800K
20260426T18Z_MSC_RDPS_SpecificHumidity_IsbL-0875_RLatLon0.09_PT015H.grib2 2026-04-26 21:24 822K
20260426T18Z_MSC_RDPS_SpecificHumidity_IsbL-0900_RLatLon0.09_PT015H.grib2 2026-04-26 21:24 831K
20260426T18Z_MSC_RDPS_SpecificHumidity_IsbL-0925_RLatLon0.09_PT015H.grib2 2026-04-26 21:24 832K
20260426T18Z_MSC_RDPS_SpecificHumidity_IsbL-0950_RLatLon0.09_PT015H.grib2 2026-04-26 21:24 828K
20260426T18Z_MSC_RDPS_SpecificHumidity_IsbL-0970_RLatLon0.09_PT015H.grib2 2026-04-26 21:24 817K
20260426T18Z_MSC_RDPS_SpecificHumidity_IsbL-0985_RLatLon0.09_PT015H.grib2 2026-04-26 21:24 811K
20260426T18Z_MSC_RDPS_SpecificHumidity_IsbL-1000_RLatLon0.09_PT015H.grib2 2026-04-26 21:24 667K
20260426T18Z_MSC_RDPS_SpecificHumidity_IsbL-1015_RLatLon0.09_PT015H.grib2 2026-04-26 21:24 659K
20260426T18Z_MSC_RDPS_SpecificHumidity_Sfc_RLatLon0.09_PT015H.grib2 2026-04-26 21:24 289K
20260426T18Z_MSC_RDPS_StormRelativeHelicity_EtaL-10000_RLatLon0.09_PT015H.grib2 2026-04-26 21:24 1.0M
20260426T18Z_MSC_RDPS_StormSeverityIndex_EtaL-10000_RLatLon0.09_PT015H.grib2 2026-04-26 21:24 1.2M
20260426T18Z_MSC_RDPS_Thickness_IsbL-0850to0700_RLatLon0.09_PT015H.grib2 2026-04-26 21:24 175K
20260426T18Z_MSC_RDPS_Thickness_IsbL-1000to0500_RLatLon0.09_PT015H.grib2 2026-04-26 21:24 199K
20260426T18Z_MSC_RDPS_Thickness_IsbL-1000to0850_RLatLon0.09_PT015H.grib2 2026-04-26 21:24 183K
20260426T18Z_MSC_RDPS_TotalCloudCover_Sfc_RLatLon0.09_PT015H.grib2 2026-04-26 21:24 670K
20260426T18Z_MSC_RDPS_TotalTotalsIndex_Sfc_RLatLon0.09_PT015H.grib2 2026-04-26 21:24 2.4M
20260426T18Z_MSC_RDPS_UVIndex-ClearSky_Sfc_RLatLon0.09_PT015H.grib2 2026-04-26 21:24 106K
20260426T18Z_MSC_RDPS_UVIndex_Sfc_RLatLon0.09_PT015H.grib2 2026-04-26 21:24 192K
20260426T18Z_MSC_RDPS_UpwardLongwaveRadiationFlux_NTAtm_RLatLon0.09_PT015H.grib2 2026-04-26 21:24 489K
20260426T18Z_MSC_RDPS_UpwardShortwaveRadiationFlux_NTAtm_RLatLon0.09_PT015H.grib2 2026-04-26 21:24 158K
20260426T18Z_MSC_RDPS_VerticalVelocity_IsbL-0250_RLatLon0.09_PT015H.grib2 2026-04-26 21:24 544K
20260426T18Z_MSC_RDPS_VerticalVelocity_IsbL-0500_RLatLon0.09_PT015H.grib2 2026-04-26 21:24 539K
20260426T18Z_MSC_RDPS_VerticalVelocity_IsbL-0700_RLatLon0.09_PT015H.grib2 2026-04-26 21:24 590K
20260426T18Z_MSC_RDPS_VerticalVelocity_IsbL-0850_RLatLon0.09_PT015H.grib2 2026-04-26 21:24 696K
20260426T18Z_MSC_RDPS_VerticalWindShear_EtaL-6500_RLatLon0.09_PT015H.grib2 2026-04-26 21:24 1.2M
20260426T18Z_MSC_RDPS_WindChill_Sfc_RLatLon0.09_PT015H.grib2 2026-04-26 21:24 1.1M
20260426T18Z_MSC_RDPS_WindDir_AGL-10m_RLatLon0.09_PT015H.grib2 2026-04-26 21:24 1.0M
20260426T18Z_MSC_RDPS_WindDir_AGL-120m_RLatLon0.09_PT015H.grib2 2026-04-26 21:24 609K
20260426T18Z_MSC_RDPS_WindDir_AGL-40m_RLatLon0.09_PT015H.grib2 2026-04-26 21:24 645K
20260426T18Z_MSC_RDPS_WindDir_AGL-80m_RLatLon0.09_PT015H.grib2 2026-04-26 21:24 623K
20260426T18Z_MSC_RDPS_WindDir_IsbL-0001_RLatLon0.09_PT015H.grib2 2026-04-26 21:24 298K
20260426T18Z_MSC_RDPS_WindDir_IsbL-0005_RLatLon0.09_PT015H.grib2 2026-04-26 21:24 361K
20260426T18Z_MSC_RDPS_WindDir_IsbL-0010_RLatLon0.09_PT015H.grib2 2026-04-26 21:24 379K
20260426T18Z_MSC_RDPS_WindDir_IsbL-0020_RLatLon0.09_PT015H.grib2 2026-04-26 21:24 396K
20260426T18Z_MSC_RDPS_WindDir_IsbL-0030_RLatLon0.09_PT015H.grib2 2026-04-26 21:24 423K
20260426T18Z_MSC_RDPS_WindDir_IsbL-0050_RLatLon0.09_PT015H.grib2 2026-04-26 21:24 423K
20260426T18Z_MSC_RDPS_WindDir_IsbL-0100_RLatLon0.09_PT015H.grib2 2026-04-26 21:24 409K
20260426T18Z_MSC_RDPS_WindDir_IsbL-0150_RLatLon0.09_PT015H.grib2 2026-04-26 21:24 410K
20260426T18Z_MSC_RDPS_WindDir_IsbL-0175_RLatLon0.09_PT015H.grib2 2026-04-26 21:24 436K
20260426T18Z_MSC_RDPS_WindDir_IsbL-0200_RLatLon0.09_PT015H.grib2 2026-04-26 21:24 454K
20260426T18Z_MSC_RDPS_WindDir_IsbL-0225_RLatLon0.09_PT015H.grib2 2026-04-26 21:24 456K
20260426T18Z_MSC_RDPS_WindDir_IsbL-0250_RLatLon0.09_PT015H.grib2 2026-04-26 21:24 458K
20260426T18Z_MSC_RDPS_WindDir_IsbL-0275_RLatLon0.09_PT015H.grib2 2026-04-26 21:24 484K
20260426T18Z_MSC_RDPS_WindDir_IsbL-0300_RLatLon0.09_PT015H.grib2 2026-04-26 21:24 479K
20260426T18Z_MSC_RDPS_WindDir_IsbL-0350_RLatLon0.09_PT015H.grib2 2026-04-26 21:24 502K
20260426T18Z_MSC_RDPS_WindDir_IsbL-0400_RLatLon0.09_PT015H.grib2 2026-04-26 21:24 513K
20260426T18Z_MSC_RDPS_WindDir_IsbL-0450_RLatLon0.09_PT015H.grib2 2026-04-26 21:24 527K
20260426T18Z_MSC_RDPS_WindDir_IsbL-0500_RLatLon0.09_PT015H.grib2 2026-04-26 21:24 540K
20260426T18Z_MSC_RDPS_WindDir_IsbL-0550_RLatLon0.09_PT015H.grib2 2026-04-26 21:24 551K
20260426T18Z_MSC_RDPS_WindDir_IsbL-0600_RLatLon0.09_PT015H.grib2 2026-04-26 21:24 584K
20260426T18Z_MSC_RDPS_WindDir_IsbL-0650_RLatLon0.09_PT015H.grib2 2026-04-26 21:24 627K
20260426T18Z_MSC_RDPS_WindDir_IsbL-0700_RLatLon0.09_PT015H.grib2 2026-04-26 21:24 672K
20260426T18Z_MSC_RDPS_WindDir_IsbL-0750_RLatLon0.09_PT015H.grib2 2026-04-26 21:24 727K
20260426T18Z_MSC_RDPS_WindDir_IsbL-0800_RLatLon0.09_PT015H.grib2 2026-04-26 21:24 804K
20260426T18Z_MSC_RDPS_WindDir_IsbL-0850_RLatLon0.09_PT015H.grib2 2026-04-26 21:24 873K
20260426T18Z_MSC_RDPS_WindDir_IsbL-0875_RLatLon0.09_PT015H.grib2 2026-04-26 21:24 892K
20260426T18Z_MSC_RDPS_WindDir_IsbL-0900_RLatLon0.09_PT015H.grib2 2026-04-26 21:24 907K
20260426T18Z_MSC_RDPS_WindDir_IsbL-0925_RLatLon0.09_PT015H.grib2 2026-04-26 21:24 912K
20260426T18Z_MSC_RDPS_WindDir_IsbL-0950_RLatLon0.09_PT015H.grib2 2026-04-26 21:24 912K
20260426T18Z_MSC_RDPS_WindDir_IsbL-0970_RLatLon0.09_PT015H.grib2 2026-04-26 21:24 920K
20260426T18Z_MSC_RDPS_WindDir_IsbL-0985_RLatLon0.09_PT015H.grib2 2026-04-26 21:24 934K
20260426T18Z_MSC_RDPS_WindDir_IsbL-1000_RLatLon0.09_PT015H.grib2 2026-04-26 21:24 952K
20260426T18Z_MSC_RDPS_WindDir_IsbL-1015_RLatLon0.09_PT015H.grib2 2026-04-26 21:24 972K
20260426T18Z_MSC_RDPS_WindGust-Max_AGL-10m_RLatLon0.09_PT015H.grib2 2026-04-26 21:24 1.0M
20260426T18Z_MSC_RDPS_WindGust-Min_AGL-10m_RLatLon0.09_PT015H.grib2 2026-04-26 21:24 1.0M
20260426T18Z_MSC_RDPS_WindGust_AGL-10m_RLatLon0.09_PT015H.grib2 2026-04-26 21:24 1.0M
20260426T18Z_MSC_RDPS_WindSpeed_AGL-10m_RLatLon0.09_PT015H.grib2 2026-04-26 21:24 854K
20260426T18Z_MSC_RDPS_WindSpeed_AGL-120m_RLatLon0.09_PT015H.grib2 2026-04-26 21:24 558K
20260426T18Z_MSC_RDPS_WindSpeed_AGL-40m_RLatLon0.09_PT015H.grib2 2026-04-26 21:24 552K
20260426T18Z_MSC_RDPS_WindSpeed_AGL-80m_RLatLon0.09_PT015H.grib2 2026-04-26 21:24 560K
20260426T18Z_MSC_RDPS_WindSpeed_IsbL-0001_RLatLon0.09_PT015H.grib2 2026-04-26 21:24 250K
20260426T18Z_MSC_RDPS_WindSpeed_IsbL-0005_RLatLon0.09_PT015H.grib2 2026-04-26 21:24 295K
20260426T18Z_MSC_RDPS_WindSpeed_IsbL-0010_RLatLon0.09_PT015H.grib2 2026-04-26 21:24 307K
20260426T18Z_MSC_RDPS_WindSpeed_IsbL-0020_RLatLon0.09_PT015H.grib2 2026-04-26 21:24 419K
20260426T18Z_MSC_RDPS_WindSpeed_IsbL-0030_RLatLon0.09_PT015H.grib2 2026-04-26 21:24 320K
20260426T18Z_MSC_RDPS_WindSpeed_IsbL-0050_RLatLon0.09_PT015H.grib2 2026-04-26 21:24 353K
20260426T18Z_MSC_RDPS_WindSpeed_IsbL-0100_RLatLon0.09_PT015H.grib2 2026-04-26 21:24 473K
20260426T18Z_MSC_RDPS_WindSpeed_IsbL-0150_RLatLon0.09_PT015H.grib2 2026-04-26 21:24 374K
20260426T18Z_MSC_RDPS_WindSpeed_IsbL-0175_RLatLon0.09_PT015H.grib2 2026-04-26 21:24 401K
20260426T18Z_MSC_RDPS_WindSpeed_IsbL-0200_RLatLon0.09_PT015H.grib2 2026-04-26 21:24 438K
20260426T18Z_MSC_RDPS_WindSpeed_IsbL-0225_RLatLon0.09_PT015H.grib2 2026-04-26 21:24 446K
20260426T18Z_MSC_RDPS_WindSpeed_IsbL-0250_RLatLon0.09_PT015H.grib2 2026-04-26 21:24 450K
20260426T18Z_MSC_RDPS_WindSpeed_IsbL-0275_RLatLon0.09_PT015H.grib2 2026-04-26 21:24 469K
20260426T18Z_MSC_RDPS_WindSpeed_IsbL-0300_RLatLon0.09_PT015H.grib2 2026-04-26 21:24 466K
20260426T18Z_MSC_RDPS_WindSpeed_IsbL-0350_RLatLon0.09_PT015H.grib2 2026-04-26 21:24 459K
20260426T18Z_MSC_RDPS_WindSpeed_IsbL-0400_RLatLon0.09_PT015H.grib2 2026-04-26 21:24 461K
20260426T18Z_MSC_RDPS_WindSpeed_IsbL-0450_RLatLon0.09_PT015H.grib2 2026-04-26 21:24 459K
20260426T18Z_MSC_RDPS_WindSpeed_IsbL-0500_RLatLon0.09_PT015H.grib2 2026-04-26 21:24 574K
20260426T18Z_MSC_RDPS_WindSpeed_IsbL-0550_RLatLon0.09_PT015H.grib2 2026-04-26 21:24 574K
20260426T18Z_MSC_RDPS_WindSpeed_IsbL-0600_RLatLon0.09_PT015H.grib2 2026-04-26 21:24 586K
20260426T18Z_MSC_RDPS_WindSpeed_IsbL-0650_RLatLon0.09_PT015H.grib2 2026-04-26 21:24 608K
20260426T18Z_MSC_RDPS_WindSpeed_IsbL-0700_RLatLon0.09_PT015H.grib2 2026-04-26 21:24 674K
20260426T18Z_MSC_RDPS_WindSpeed_IsbL-0750_RLatLon0.09_PT015H.grib2 2026-04-26 21:24 706K
20260426T18Z_MSC_RDPS_WindSpeed_IsbL-0800_RLatLon0.09_PT015H.grib2 2026-04-26 21:24 760K
20260426T18Z_MSC_RDPS_WindSpeed_IsbL-0850_RLatLon0.09_PT015H.grib2 2026-04-26 21:24 816K
20260426T18Z_MSC_RDPS_WindSpeed_IsbL-0875_RLatLon0.09_PT015H.grib2 2026-04-26 21:24 836K
20260426T18Z_MSC_RDPS_WindSpeed_IsbL-0900_RLatLon0.09_PT015H.grib2 2026-04-26 21:24 850K
20260426T18Z_MSC_RDPS_WindSpeed_IsbL-0925_RLatLon0.09_PT015H.grib2 2026-04-26 21:24 863K
20260426T18Z_MSC_RDPS_WindSpeed_IsbL-0950_RLatLon0.09_PT015H.grib2 2026-04-26 21:24 865K
20260426T18Z_MSC_RDPS_WindSpeed_IsbL-0970_RLatLon0.09_PT015H.grib2 2026-04-26 21:24 864K
20260426T18Z_MSC_RDPS_WindSpeed_IsbL-0985_RLatLon0.09_PT015H.grib2 2026-04-26 21:24 863K
20260426T18Z_MSC_RDPS_WindSpeed_IsbL-1000_RLatLon0.09_PT015H.grib2 2026-04-26 21:24 857K
20260426T18Z_MSC_RDPS_WindSpeed_IsbL-1015_RLatLon0.09_PT015H.grib2 2026-04-26 21:24 851K
20260426T18Z_MSC_RDPS_WindU_AGL-10m_RLatLon0.09_PT015H.grib2 2026-04-26 21:24 388K
20260426T18Z_MSC_RDPS_WindU_AGL-120m_RLatLon0.09_PT015H.grib2 2026-04-26 21:24 440K
20260426T18Z_MSC_RDPS_WindU_AGL-40m_RLatLon0.09_PT015H.grib2 2026-04-26 21:24 428K
20260426T18Z_MSC_RDPS_WindU_AGL-80m_RLatLon0.09_PT015H.grib2 2026-04-26 21:24 426K
20260426T18Z_MSC_RDPS_WindU_IsbL-0001_RLatLon0.09_PT015H.grib2 2026-04-26 21:24 265K
20260426T18Z_MSC_RDPS_WindU_IsbL-0005_RLatLon0.09_PT015H.grib2 2026-04-26 21:24 288K
20260426T18Z_MSC_RDPS_WindU_IsbL-0010_RLatLon0.09_PT015H.grib2 2026-04-26 21:24 298K
20260426T18Z_MSC_RDPS_WindU_IsbL-0020_RLatLon0.09_PT015H.grib2 2026-04-26 21:24 314K
20260426T18Z_MSC_RDPS_WindU_IsbL-0030_RLatLon0.09_PT015H.grib2 2026-04-26 21:24 352K
20260426T18Z_MSC_RDPS_WindU_IsbL-0050_RLatLon0.09_PT015H.grib2 2026-04-26 21:24 382K
20260426T18Z_MSC_RDPS_WindU_IsbL-0100_RLatLon0.09_PT015H.grib2 2026-04-26 21:24 430K
20260426T18Z_MSC_RDPS_WindU_IsbL-0150_RLatLon0.09_PT015H.grib2 2026-04-26 21:24 391K
20260426T18Z_MSC_RDPS_WindU_IsbL-0175_RLatLon0.09_PT015H.grib2 2026-04-26 21:24 416K
20260426T18Z_MSC_RDPS_WindU_IsbL-0200_RLatLon0.09_PT015H.grib2 2026-04-26 21:24 334K
20260426T18Z_MSC_RDPS_WindU_IsbL-0225_RLatLon0.09_PT015H.grib2 2026-04-26 21:24 339K
20260426T18Z_MSC_RDPS_WindU_IsbL-0250_RLatLon0.09_PT015H.grib2 2026-04-26 21:24 341K
20260426T18Z_MSC_RDPS_WindU_IsbL-0275_RLatLon0.09_PT015H.grib2 2026-04-26 21:24 356K
20260426T18Z_MSC_RDPS_WindU_IsbL-0300_RLatLon0.09_PT015H.grib2 2026-04-26 21:24 352K
20260426T18Z_MSC_RDPS_WindU_IsbL-0350_RLatLon0.09_PT015H.grib2 2026-04-26 21:24 361K
20260426T18Z_MSC_RDPS_WindU_IsbL-0400_RLatLon0.09_PT015H.grib2 2026-04-26 21:24 466K
20260426T18Z_MSC_RDPS_WindU_IsbL-0450_RLatLon0.09_PT015H.grib2 2026-04-26 21:24 465K
20260426T18Z_MSC_RDPS_WindU_IsbL-0500_RLatLon0.09_PT015H.grib2 2026-04-26 21:24 464K
20260426T18Z_MSC_RDPS_WindU_IsbL-0550_RLatLon0.09_PT015H.grib2 2026-04-26 21:24 465K
20260426T18Z_MSC_RDPS_WindU_IsbL-0600_RLatLon0.09_PT015H.grib2 2026-04-26 21:24 474K
20260426T18Z_MSC_RDPS_WindU_IsbL-0650_RLatLon0.09_PT015H.grib2 2026-04-26 21:24 493K
20260426T18Z_MSC_RDPS_WindU_IsbL-0700_RLatLon0.09_PT015H.grib2 2026-04-26 21:24 513K
20260426T18Z_MSC_RDPS_WindU_IsbL-0750_RLatLon0.09_PT015H.grib2 2026-04-26 21:24 527K
20260426T18Z_MSC_RDPS_WindU_IsbL-0800_RLatLon0.09_PT015H.grib2 2026-04-26 21:24 575K
20260426T18Z_MSC_RDPS_WindU_IsbL-0850_RLatLon0.09_PT015H.grib2 2026-04-26 21:24 626K
20260426T18Z_MSC_RDPS_WindU_IsbL-0875_RLatLon0.09_PT015H.grib2 2026-04-26 21:24 650K
20260426T18Z_MSC_RDPS_WindU_IsbL-0900_RLatLon0.09_PT015H.grib2 2026-04-26 21:24 652K
20260426T18Z_MSC_RDPS_WindU_IsbL-0925_RLatLon0.09_PT015H.grib2 2026-04-26 21:24 661K
20260426T18Z_MSC_RDPS_WindU_IsbL-0950_RLatLon0.09_PT015H.grib2 2026-04-26 21:24 658K
20260426T18Z_MSC_RDPS_WindU_IsbL-0970_RLatLon0.09_PT015H.grib2 2026-04-26 21:24 656K
20260426T18Z_MSC_RDPS_WindU_IsbL-0985_RLatLon0.09_PT015H.grib2 2026-04-26 21:24 655K
20260426T18Z_MSC_RDPS_WindU_IsbL-1000_RLatLon0.09_PT015H.grib2 2026-04-26 21:24 653K
20260426T18Z_MSC_RDPS_WindU_IsbL-1015_RLatLon0.09_PT015H.grib2 2026-04-26 21:24 649K
20260426T18Z_MSC_RDPS_WindV_AGL-10m_RLatLon0.09_PT015H.grib2 2026-04-26 21:24 437K
20260426T18Z_MSC_RDPS_WindV_AGL-120m_RLatLon0.09_PT015H.grib2 2026-04-26 21:24 424K
20260426T18Z_MSC_RDPS_WindV_AGL-40m_RLatLon0.09_PT015H.grib2 2026-04-26 21:24 427K
20260426T18Z_MSC_RDPS_WindV_AGL-80m_RLatLon0.09_PT015H.grib2 2026-04-26 21:24 426K
20260426T18Z_MSC_RDPS_WindV_IsbL-0001_RLatLon0.09_PT015H.grib2 2026-04-26 21:24 289K
20260426T18Z_MSC_RDPS_WindV_IsbL-0005_RLatLon0.09_PT015H.grib2 2026-04-26 21:24 330K
20260426T18Z_MSC_RDPS_WindV_IsbL-0010_RLatLon0.09_PT015H.grib2 2026-04-26 21:24 299K
20260426T18Z_MSC_RDPS_WindV_IsbL-0020_RLatLon0.09_PT015H.grib2 2026-04-26 21:24 315K
20260426T18Z_MSC_RDPS_WindV_IsbL-0030_RLatLon0.09_PT015H.grib2 2026-04-26 21:24 315K
20260426T18Z_MSC_RDPS_WindV_IsbL-0050_RLatLon0.09_PT015H.grib2 2026-04-26 21:24 346K
20260426T18Z_MSC_RDPS_WindV_IsbL-0100_RLatLon0.09_PT015H.grib2 2026-04-26 21:24 330K
20260426T18Z_MSC_RDPS_WindV_IsbL-0150_RLatLon0.09_PT015H.grib2 2026-04-26 21:24 389K
20260426T18Z_MSC_RDPS_WindV_IsbL-0175_RLatLon0.09_PT015H.grib2 2026-04-26 21:24 321K
20260426T18Z_MSC_RDPS_WindV_IsbL-0200_RLatLon0.09_PT015H.grib2 2026-04-26 21:24 335K
20260426T18Z_MSC_RDPS_WindV_IsbL-0225_RLatLon0.09_PT015H.grib2 2026-04-26 21:24 338K
20260426T18Z_MSC_RDPS_WindV_IsbL-0250_RLatLon0.09_PT015H.grib2 2026-04-26 21:24 365K
20260426T18Z_MSC_RDPS_WindV_IsbL-0275_RLatLon0.09_PT015H.grib2 2026-04-26 21:24 379K
20260426T18Z_MSC_RDPS_WindV_IsbL-0300_RLatLon0.09_PT015H.grib2 2026-04-26 21:24 350K
20260426T18Z_MSC_RDPS_WindV_IsbL-0350_RLatLon0.09_PT015H.grib2 2026-04-26 21:24 358K
20260426T18Z_MSC_RDPS_WindV_IsbL-0400_RLatLon0.09_PT015H.grib2 2026-04-26 21:24 359K
20260426T18Z_MSC_RDPS_WindV_IsbL-0450_RLatLon0.09_PT015H.grib2 2026-04-26 21:24 460K
20260426T18Z_MSC_RDPS_WindV_IsbL-0500_RLatLon0.09_PT015H.grib2 2026-04-26 21:24 459K
20260426T18Z_MSC_RDPS_WindV_IsbL-0550_RLatLon0.09_PT015H.grib2 2026-04-26 21:24 459K
20260426T18Z_MSC_RDPS_WindV_IsbL-0600_RLatLon0.09_PT015H.grib2 2026-04-26 21:24 469K
20260426T18Z_MSC_RDPS_WindV_IsbL-0650_RLatLon0.09_PT015H.grib2 2026-04-26 21:24 488K
20260426T18Z_MSC_RDPS_WindV_IsbL-0700_RLatLon0.09_PT015H.grib2 2026-04-26 21:24 508K
20260426T18Z_MSC_RDPS_WindV_IsbL-0750_RLatLon0.09_PT015H.grib2 2026-04-26 21:24 521K
20260426T18Z_MSC_RDPS_WindV_IsbL-0800_RLatLon0.09_PT015H.grib2 2026-04-26 21:24 569K
20260426T18Z_MSC_RDPS_WindV_IsbL-0850_RLatLon0.09_PT015H.grib2 2026-04-26 21:24 618K
20260426T18Z_MSC_RDPS_WindV_IsbL-0875_RLatLon0.09_PT015H.grib2 2026-04-26 21:24 635K
20260426T18Z_MSC_RDPS_WindV_IsbL-0900_RLatLon0.09_PT015H.grib2 2026-04-26 21:24 647K
20260426T18Z_MSC_RDPS_WindV_IsbL-0925_RLatLon0.09_PT015H.grib2 2026-04-26 21:24 656K
20260426T18Z_MSC_RDPS_WindV_IsbL-0950_RLatLon0.09_PT015H.grib2 2026-04-26 21:24 656K
20260426T18Z_MSC_RDPS_WindV_IsbL-0970_RLatLon0.09_PT015H.grib2 2026-04-26 21:24 654K
20260426T18Z_MSC_RDPS_WindV_IsbL-0985_RLatLon0.09_PT015H.grib2 2026-04-26 21:24 654K
20260426T18Z_MSC_RDPS_WindV_IsbL-1000_RLatLon0.09_PT015H.grib2 2026-04-26 21:24 653K
20260426T18Z_MSC_RDPS_WindV_IsbL-1015_RLatLon0.09_PT015H.grib2 2026-04-26 21:24 787K